TimeEDT,TemperatureF,Dew PointF,Humidity,Sea Level PressureIn,VisibilityMPH,Wind Direction,Wind SpeedMPH,Gust SpeedMPH,PrecipitationIn,Events,Conditions,WindDirDegrees,DateUTC
12:15 AM,53.6,51.8,94,30.17,10.0,Calm,Calm,-,N/A,,Clear,0,2014-03-09 05:15:00
12:35 AM,53.6,51.8,94,30.17,10.0,North,3.5,-,N/A,,Clear,10,2014-03-09 05:35:00
12:55 AM,53.6,51.8,94,30.17,10.0,Calm,Calm,-,N/A,,Clear,0,2014-03-09 05:55:00
1:15 AM,53.6,51.8,94,30.16,10.0,Calm,Calm,-,N/A,,Clear,0,2014-03-09 06:15:00
1:35 AM,51.8,50.0,94,30.16,10.0,Calm,Calm,-,N/A,,Clear,0,2014-03-09 06:35:00
1:55 AM,51.8,51.8,100,30.16,10.0,North,3.5,-,N/A,,Clear,10,2014-03-09 06:55:00
3:15 AM,51.8,51.8,100,30.15,10.0,Calm,Calm,-,N/A,,Clear,0,2014-03-09 07:15:00
3:35 AM,51.8,51.8,100,30.15,10.0,Calm,Calm,-,N/A,,Clear,0,2014-03-09 07:35:00
3:55 AM,51.8,51.8,100,30.15,10.0,Calm,Calm,-,N/A,,Clear,0,2014-03-09 07:55:00
4:15 AM,51.8,51.8,100,30.14,10.0,Calm,Calm,-,N/A,,Clear,0,2014-03-09 08:15:00
4:35 AM,51.8,50.0,94,30.13,10.0,Calm,Calm,-,N/A,,Clear,0,2014-03-09 08:35:00
4:55 AM,51.8,51.8,100,30.13,10.0,Calm,Calm,-,N/A,,Clear,0,2014-03-09 08:55:00
5:15 AM,51.8,51.8,100,30.14,7.0,Calm,Calm,-,N/A,,Clear,0,2014-03-09 09:15:00
5:35 AM,51.8,51.8,100,30.14,7.0,Calm,Calm,-,N/A,,Clear,0,2014-03-09 09:35:00
5:50 AM,57.2,51.8,82,30.14,12.0,Calm,Calm,-,N/A,,Clear,0,2014-03-09 09:50:00
5:55 AM,51.8,51.8,100,30.15,7.0,Calm,Calm,-,N/A,,Clear,0,2014-03-09 09:55:00
6:15 AM,51.8,51.8,100,30.16,5.0,Calm,Calm,-,N/A,,Clear,0,2014-03-09 10:15:00
6:35 AM,51.8,51.8,100,30.16,5.0,North,3.5,-,N/A,,Clear,10,2014-03-09 10:35:00
6:50 AM,51.8,51.8,100,30.17,10.0,Calm,Calm,-,N/A,,Clear,0,2014-03-09 10:50:00
7:50 AM,51.8,51.8,100,30.18,4.0,Calm,Calm,-,N/A,,Clear,0,2014-03-09 11:50:00
8:50 AM,55.4,55.4,100,30.21,7.0,Calm,Calm,-,N/A,,Clear,0,2014-03-09 12:50:00
9:50 AM,60.8,57.2,88,30.22,8.0,Calm,Calm,-,N/A,,Clear,0,2014-03-09 13:50:00
10:50 AM,60.8,57.2,88,30.23,12.0,Calm,Calm,-,N/A,,Clear,0,2014-03-09 14:50:00
11:50 AM,69.8,55.4,60,30.22,15.0,Calm,Calm,-,N/A,,Clear,0,2014-03-09 15:50:00
12:50 PM,73.4,53.6,50,30.19,15.0,Calm,Calm,-,N/A,,Partly Cloudy,0,2014-03-09 16:50:00
1:55 PM,75.2,51.8,44,30.16,15.0,WSW,3.5,-,N/A,,Clear,240,2014-03-09 17:55:00
2:54 PM,77.0,51.8,41,30.13,15.0,Calm,Calm,-,N/A,,Clear,0,2014-03-09 18:54:00
3:58 PM,78.8,48.2,34,30.11,15.0,WNW,5.8,-,N/A,,Partly Cloudy,300,2014-03-09 19:58:00
4:58 PM,78.8,48.2,34,30.09,15.0,Calm,Calm,-,N/A,,Partly Cloudy,0,2014-03-09 20:58:00
5:51 PM,78.8,48.2,34,30.10,15.0,NW,4.6,-,N/A,,Scattered Clouds,320,2014-03-09 21:51:00
6:51 PM,75.2,51.8,44,30.10,15.0,WNW,12.7,17.3,N/A,,Scattered Clouds,290,2014-03-09 22:51:00
7:52 PM,69.8,53.6,56,30.11,15.0,NW,8.1,-,N/A,,Scattered Clouds,310,2014-03-09 23:52:00
8:54 PM,64.4,53.6,68,30.13,15.0,WNW,4.6,-,N/A,,Scattered Clouds,300,2014-03-10 00:54:00
9:51 PM,64.4,53.6,68,30.13,15.0,Calm,Calm,-,N/A,,Scattered Clouds,0,2014-03-10 01:51:00
10:55 PM,60.8,51.8,72,30.16,10.0,NNW,4.6,-,N/A,,Clear,330,2014-03-10 02:55:00
11:15 PM,60.8,51.8,72,30.16,10.0,NW,6.9,-,N/A,,Clear,320,2014-03-10 03:15:00
11:35 PM,60.8,53.6,77,30.16,10.0,NNW,5.8,-,N/A,,Clear,330,2014-03-10 03:35:00
11:55 PM,60.8,53.6,77,30.16,10.0,NNW,3.5,-,N/A,,Clear,330,2014-03-10 03:55:00
12:15 AM,60.8,53.6,77,30.16,10.0,NW,4.6,-,N/A,,Clear,320,2014-03-10 04:15:00
12:35 AM,59.0,53.6,82,30.16,10.0,NNW,3.5,-,N/A,,Clear,330,2014-03-10 04:35:00
12:55 AM,59.0,53.6,82,30.16,10.0,Calm,Calm,-,N/A,,Clear,0,2014-03-10 04:55:00